Theta_e
275 275 274 274 274 275 274 274 274 273 273 274 273 273 274 274 275 275 275 275 275 275 275 276 276 276 276 276 276 276 276 276 276 276 276 277 278 279 279 280 282 282
274 275 275 275 274 274 274 274 273 273 273 273 273 274 274 274 274 275 274 275 275 275 275 275 275 275 275 275 275 275 275 275 275 276 276 277 278 279 279 281 281 282
273 273 273 273 273 273 273 273 273 273 273 273 273 274 274 275 274 274 275 275 275 275 275 275 275 275 275 274 274 274 274 274 274 275 276 276 277 277 278 279 280 281
273 273 273 272 272 272 272 272 272 272 273 272 272 273 274 274 274 274 274 275 274 274 275 275 275 275 274 274 274 274 274 274 274 275 274 274 275 276 277 279 280 281
272 272 272 272 272 272 272 271 271 271 272 272 272 273 273 273 273 273 274 274 274 274 274 274 274 274 274 274 274 273 274 274 274 274 274 274 275 277 278 278 278 279
272 272 272 271 271 271 271 271 271 271 271 271 271 272 272 272 272 273 273 273 273 274 274 274 274 274 274 274 273 273 273 273 273 274 273 273 274 276 276 276 275 275
270 271 270 270 270 270 270 270 270 271 271 271 271 271 271 271 271 272 272 273 273 273 273 273 273 273 273 273 273 272 272 272 273 273 273 273 274 274 274 274 274 274
269 269 269 269 269 269 269 269 269 270 270 270 270 270 271 271 271 271 272 272 273 273 273 273 272 272 272 272 272 271 271 272 272 272 272 273 273 273 272 273 274 276
269 268 268 268 268 268 268 268 269 269 270 269 269 270 270 271 271 271 271 272 272 272 272 271 271 271 272 272 271 271 270 270 271 272 272 272 272 272 272 272 273 274
268 268 267 267 267 267 267 268 268 268 269 269 269 269 269 270 270 270 271 271 271 271 270 270 270 270 270 271 271 270 270 270 271 271 271 271 271 271 271 271 272 272
267 267 267 267 267 267 267 267 267 268 269 269 269 269 269 269 269 270 269 269 269 269 268 268 268 268 268 269 270 270 270 270 270 271 271 271 271 271 272 271 271 272
266 266 266 266 266 266 267 267 267 268 268 268 268 267 267 267 267 267 268 267 267 267 267 267 267 267 267 268 268 269 269 269 270 270 270 270 271 271 271 271 271 271
266 266 266 266 266 266 267 267 267 267 266 266 266 265 265 265 265 265 266 266 266 266 266 266 266 266 266 267 267 267 268 268 269 269 269 270 270 270 271 271 271 271
266 266 266 266 266 266 266 266 266 265 265 264 264 264 263 264 264 264 264 265 265 265 265 265 265 265 266 266 267 267 268 268 268 269 269 269 270 270 271 271 271 271
266 266 266 266 266 265 265 264 264 263 263 263 262 262 263 263 263 263 263 263 263 264 264 264 265 265 266 266 266 267 268 268 268 269 269 269 269 270 270 271 271 271
265 265 265 265 264 263 263 262 262 262 261 261 261 261 261 262 262 262 262 262 262 263 264 264 265 265 267 271 272 270 270 270 270 270 269 269 269 269 270 270 271 272
264 264 264 263 262 262 261 261 260 260 259 259 260 260 260 261 261 261 262 262 263 263 263 264 265 266 271 273 274 275 273 271 271 271 272 272 271 271 270 271 271 272
263 263 262 261 261 260 260 259 259 259 258 259 259 259 260 261 261 261 262 263 263 264 264 265 265 270 272 273 275 275 276 273 272 272 272 272 272 272 272 272 273 273
261 261 260 259 259 259 258 258 258 258 258 258 258 259 260 260 261 262 263 264 264 264 264 265 266 270 273 274 275 276 276 275 273 273 272 272 273 273 273 273 273 273
260 259 258 258 258 258 258 257 257 257 258 259 259 260 260 261 262 262 262 262 263 263 264 264 265 269 272 274 275 276 277 277 274 274 274 273 273 274 274 274 273 273
259 258 257 257 257 257 257 257 257 257 258 259 259 260 261 261 261 261 261 262 262 263 263 263 264 270 272 274 275 276 277 277 274 274 275 275 275 275 275 274 274 274
257 256 256 256 256 256 256 256 257 257 258 259 260 261 261 261 261 262 261 262 262 262 262 262 263 270 272 273 274 276 277 274 274 275 275 275 275 275 275 275 275 275
257 256 255 255 256 255 256 256 257 257 258 260 260 260 260 260 260 261 261 261 261 261 261 262 263 267 272 273 274 276 275 273 274 275 275 275 275 275 275 275 275 275
256 255 255 255 255 255 255 256 257 258 259 260 259 259 259 259 260 260 260 261 261 261 261 262 264 267 272 273 274 275 275 273 273 273 274 275 275 275 275 275 275 278
255 255 255 255 255 255 256 256 257 258 259 259 259 259 259 260 260 259 260 260 261 261 265 264 264 266 271 272 273 275 274 273 273 273 272 272 274 275 275 276 276 277
255 254 254 254 254 255 256 257 258 258 258 259 259 259 259 259 259 259 259 260 261 262 262 264 264 265 267 272 274 275 276 273 272 271 271 271 273 274 274 275 276 276
Wind_Speed
5 4 6 6 6 6 8 9 9 9 10 9 10 11 10 11 11 10 11 10 11 12 11 11 11 11 11 11 11 11 13 13 16 13 16 17 16 16 16 16 16 14
5 5 6 6 6 6 7 8 10 10 11 10 10 10 10 11 11 11 12 12 12 12 12 12 12 12 12 11 11 12 13 13 16 13 16 17 15 15 17 16 15 13
5 5 5 6 8 9 9 9 9 10 10 11 11 10 12 11 13 12 12 12 13 13 12 12 12 12 12 12 12 13 13 16 16 15 17 17 15 14 15 14 13 17
5 5 6 7 7 9 9 9 10 9 10 10 11 11 12 12 13 14 13 13 13 13 13 12 13 12 12 13 13 13 15 15 17 14 17 16 17 19 20 15 14 13
6 6 5 7 7 8 9 10 11 10 11 11 12 12 12 13 13 14 13 13 13 13 13 14 13 14 13 13 13 14 16 14 15 14 17 17 16 15 11 11 13 14
5 5 6 7 7 8 9 10 11 11 12 12 12 12 12 13 14 14 14 15 13 14 15 14 16 14 16 13 16 15 14 16 13 17 17 18 17 15 12 14 15 18
7 6 7 7 8 8 10 10 10 11 11 11 12 12 12 15 14 15 15 15 17 15 17 15 16 17 15 14 15 15 15 15 17 16 19 17 17 18 14 16 18 19
7 5 7 7 8 9 10 10 10 10 11 12 13 13 13 14 15 14 14 16 16 19 14 17 16 19 14 17 15 18 17 15 15 17 18 19 17 19 17 14 16 18
6 7 7 8 9 9 10 10 11 11 11 13 13 13 12 12 13 15 16 17 17 18 19 15 18 17 17 15 18 18 18 16 16 17 18 18 19 19 19 17 18 17
7 7 8 8 9 8 10 10 11 11 11 12 13 12 13 13 14 16 17 17 17 19 18 18 17 16 17 16 18 19 18 18 17 18 18 19 20 19 19 17 18 18
8 8 8 9 9 9 10 10 11 11 10 12 12 13 14 14 15 15 16 16 16 17 19 18 18 17 18 18 18 18 18 18 18 18 18 19 19 19 18 18 18 18
8 8 9 9 10 10 10 10 11 11 11 11 12 15 16 15 15 15 14 17 17 18 18 19 18 18 19 19 18 17 17 17 17 17 18 18 18 19 18 18 18 19
8 8 9 9 9 10 10 10 10 10 11 12 12 13 15 16 15 16 15 16 18 18 18 19 20 18 18 18 18 18 18 18 18 18 18 17 17 18 18 19 19 18
8 8 9 9 9 9 10 10 10 11 11 11 12 14 14 15 16 16 17 16 17 18 18 18 19 19 19 19 18 18 17 17 17 17 17 17 18 18 18 18 18 19
8 8 8 9 9 10 10 10 11 11 11 11 12 13 13 14 15 16 18 19 19 18 19 18 18 17 15 15 16 17 17 17 17 17 17 17 17 18 18 19 18 18
8 8 8 9 9 10 10 11 11 11 11 11 12 12 12 13 14 15 16 18 19 19 18 17 16 14 19 28 25 19 17 16 15 16 17 16 17 17 17 17 18 17
8 8 8 9 8 9 9 10 12 11 11 12 12 11 12 13 13 14 15 16 19 18 18 16 16 15 27 27 28 31 23 18 18 17 17 16 14 14 15 14 15 16
7 8 8 8 8 9 10 11 11 11 11 12 12 13 12 12 13 14 15 16 15 17 18 18 18 23 29 28 29 30 27 19 17 16 15 14 17 16 16 17 17 16
6 7 7 8 8 9 10 10 11 11 12 12 13 12 13 14 14 14 14 15 16 19 18 18 18 24 28 29 29 30 30 26 17 17 16 16 16 17 17 16 17 14
5 6 7 7 8 9 9 10 11 11 11 11 12 12 12 12 13 15 16 16 16 18 18 18 19 24 30 30 30 31 30 27 17 18 17 16 18 16 18 15 19 13
5 6 7 8 9 9 10 10 11 11 11 10 10 12 12 13 14 14 14 15 16 16 17 18 18 29 30 32 31 31 30 27 17 15 14 13 13 15 16 16 18 15
5 6 7 8 9 10 10 11 11 11 12 12 10 10 11 12 12 13 15 15 16 16 17 18 19 30 31 31 32 30 32 18 14 14 14 13 15 17 14 17 14 16
5 7 8 9 9 10 11 11 12 12 11 9 11 11 12 12 12 13 12 14 15 15 16 17 16 25 30 31 31 31 24 15 15 12 11 12 15 14 13 15 15 16
6 6 7 9 9 10 11 11 10 9 10 9 11 12 12 12 12 12 12 12 14 16 16 17 17 24 32 31 31 29 24 17 14 14 13 12 13 12 11 11 15 25
5 5 6 8 9 10 10 11 11 11 10 9 9 10 11 11 11 12 12 12 13 15 23 23 17 21 30 30 29 27 22 14 12 12 12 12 12 12 11 11 12 16
4 5 6 7 10 10 10 9 10 10 10 11 10 9 10 10 11 11 14 13 13 14 15 16 18 18 21 28 27 27 27 18 13 12 12 12 12 12 9 10 11 12
Wind_Direction
275 274 274 276 277 280 290 296 293 289 285 285 284 290 287 289 291 286 283 280 277 277 276 274 275 276 276 273 271 272 271 272 274 269 268 267 265 270 275 274 272 270
273 270 277 282 285 288 289 288 289 287 286 284 284 287 289 290 288 287 286 286 282 277 275 272 272 273 275 275 276 275 274 271 272 272 271 267 265 266 266 266 267 270
276 277 279 288 292 294 291 288 284 286 287 289 289 289 291 292 292 289 286 283 283 281 278 275 273 274 273 274 277 275 272 273 270 272 271 272 274 273 271 268 263 264
281 283 291 291 289 288 290 290 288 288 290 292 293 294 293 292 291 289 287 285 285 284 282 279 277 276 274 275 275 273 271 269 270 272 272 272 271 266 262 254 254 255
292 297 293 290 288 288 291 291 294 294 294 293 294 294 294 293 292 291 289 288 286 285 286 285 283 279 278 276 273 273 273 270 270 266 268 269 269 271 277 279 279 276
293 294 293 290 291 297 295 295 296 296 296 296 294 296 294 293 293 292 291 291 289 287 285 285 285 285 283 280 278 275 272 272 269 269 267 266 269 271 277 278 279 278
300 300 295 295 298 297 296 296 297 295 296 295 298 293 297 295 292 291 291 289 289 286 287 285 287 286 285 280 277 273 272 271 273 268 268 268 268 270 269 275 274 271
290 291 297 302 302 301 296 297 297 298 300 300 294 294 296 294 293 291 290 289 290 288 284 287 287 287 284 282 276 277 275 274 273 271 269 269 270 271 271 271 271 266
299 306 308 304 301 297 295 299 300 300 301 297 297 299 295 292 293 296 293 292 290 288 289 288 289 288 285 282 279 277 276 274 272 271 270 270 269 268 270 274 272 275
312 309 304 300 297 296 296 299 299 298 297 295 296 296 297 297 297 297 295 292 291 290 290 291 289 286 287 284 279 277 277 276 274 271 269 269 268 269 270 270 270 272
311 308 301 298 296 298 298 298 296 297 296 299 302 301 302 304 301 301 297 295 294 294 292 290 289 288 286 283 280 277 277 277 276 275 272 270 269 268 268 268 269 269
307 302 299 299 300 300 299 299 297 296 302 304 308 307 307 305 302 300 299 296 294 293 291 289 288 286 284 281 279 277 276 275 273 272 272 271 270 269 268 266 267 268
302 299 301 302 303 301 300 299 299 304 310 312 314 310 307 306 305 301 297 297 295 293 290 289 288 285 282 279 278 277 275 273 272 270 269 269 268 268 267 267 266 268
297 299 301 301 300 299 299 303 309 313 315 315 315 313 309 305 305 302 299 296 294 291 289 288 286 285 282 278 276 274 272 270 268 268 268 269 270 268 268 267 268 268
298 302 301 300 302 303 309 314 317 317 318 318 316 310 306 302 300 299 297 295 291 288 287 286 284 282 280 278 276 272 268 266 265 262 260 262 264 264 263 262 264 266
301 302 302 304 307 313 318 322 322 323 320 316 310 304 300 297 294 292 290 289 290 288 286 285 283 281 280 279 277 275 271 268 264 260 256 254 257 259 258 255 253 256
303 305 306 306 315 319 325 327 325 321 316 310 305 302 297 297 292 290 288 287 285 285 287 286 283 280 282 282 282 279 276 273 271 270 267 261 256 258 260 256 254 255
303 302 305 313 324 329 328 325 318 315 312 308 305 304 302 296 294 283 279 284 288 291 290 289 288 287 287 288 285 283 280 277 272 270 266 264 262 256 260 266 267 271
297 302 314 322 330 328 323 319 315 312 311 309 306 303 299 296 289 292 300 305 301 299 298 296 294 294 294 291 288 285 283 280 276 269 265 263 262 263 260 260 259 263
297 318 323 328 328 323 320 317 315 310 307 303 302 301 297 298 307 310 309 305 303 300 299 298 296 295 294 294 293 290 286 283 275 274 262 253 254 253 255 251 253 248
323 330 331 329 325 322 318 315 311 307 306 306 305 305 309 314 315 311 307 305 305 304 302 299 296 296 297 298 298 296 293 291 283 275 267 256 254 251 251 250 253 249
336 332 333 327 323 320 316 313 310 307 309 309 305 306 307 308 305 306 308 306 304 300 300 298 296 297 299 299 298 297 296 293 283 276 266 255 253 253 248 255 253 255
337 336 331 326 322 318 314 312 312 310 308 306 308 310 310 309 306 306 305 301 300 298 296 296 292 297 301 303 302 301 302 294 292 287 270 253 255 247 245 247 253 252
334 334 328 323 317 312 309 307 304 299 301 309 309 311 309 306 305 301 299 297 297 297 294 295 297 299 302 303 303 301 302 303 301 294 286 282 265 251 244 244 249 253
330 330 321 312 307 302 304 304 305 306 303 304 302 300 299 300 300 298 296 295 292 292 296 299 295 297 299 301 300 302 306 299 302 307 306 303 291 272 252 247 249 255
329 323 310 304 300 299 298 298 300 303 306 307 304 299 299 299 296 295 295 295 295 293 293 292 294 291 292 295 303 308 310 311 306 300 296 296 294 286 259 244 240 247